Tracking 31027 objects as of 19-Jul-2025
HD Live streaming from Space Station
objects crossing your sky now

STARLINK-5990

Track STARLINK-5990 now!
10-day predictions
STARLINK-5990 is classified as:


NORAD ID: 56448
Int'l Code: 2023-064A
Perigee: 577.4 km
Apogee: 580.9 km
Inclination: 70.0 °
Period: 96.1 minutes
Semi major axis: 6950 km
RCS: Unknown
Launch date: May 10, 2023
Source: United States (US)
Launch site: AIR FORCE WESTERN TEST RANGE (AFWTR)
Your satellite tracking list
KORSAT 7
Track 1 satellite(s)




NASA's NSSDC Master Catalog

Two Line Element Set (TLE):
1 56448U 23064A   25199.89185885  .00000122  00000-0  18033-4 0  9994
2 56448  69.9999  14.0156 0002546 261.5241  98.5630 14.98340090120580
Source of the keplerian elements: AFSPC